カタログに戻る

FENGYUN 1C DEB

運用中PO
NORAD 31177·DEBRIS·🇨🇳 China

打ち上げ May 10, 1999 から Taiyuan Satellite Launch Center

Loading…

次のパス (今後24時間)

TLE

最新Source: Space-Track

元期: Sep 14, 2026, 15:22 UTC

1 31177U 99025BJF 26257.64054095  .00002475  00000-0  23098-2 0  9991
2 31177  98.7560 148.9645 0303755 311.7141  74.5257 13.64043025699714

AllMySatでFENGYUN 1C DEBをリアルタイム追跡

Download on the App Store